Regional Weather Roundup
Issued by NWS

Home | Current Version | Previous Version | Text Only | Print | Product List | Glossary On
Versions: 1 2 3 4 5 6 7 8 9 10 11 12 13 14 15 16 17 18 19 20 21 22 23 24 25 26 27 28 29 30 31 32 33 34 35 36 37 38 39 40 41 42 43 44 45 46 47 48 49 50
279
ASUS43 KLSX 241110
RWRMO

WEATHER SUMMARY FOR MISSOURI
NATIONAL WEATHER SERVICE SPRINGFIELD MO
600 AM CDT SUN JUL 24 2016

NOTE: "FAIR" INDICATES FEW OR NO CLOUDS BELOW 12,000 FEET WITH NO
       SIGNIFICANT WEATHER AND/OR OBSTRUCTIONS TO VISIBILITY.
       CURRENT SKY AND/OR WEATHER CONDITIONS ARE NOT AVAILABLE FOR
       CHILLICOTHE AND FARMINGTON.

MOZ001>031-035>038-043-044-053-054-241200-
...NORTHERN AND WESTERN MISSOURI...

CITY           SKY/WX    TMP DP  RH WIND       PRES   REMARKS
KANSAS CTY INT PTCLDY    78  71  79 S10       29.88S
KANSAS C DTWN  CLEAR     82  71  69 S8        29.87S
LEE`S SUMMIT   CLEAR     81  73  76 S9        29.90R
ST JOSEPH      MOCLDY    80  71  74 N5        29.85R
CHILLICOTHE      N/A     80  74  81 S5        29.88S
KIRKSVILLE     LGT RAIN  78  75  90 S7        29.90S

$$
MOZ066>068-077>081-088>096-101>105-241200-
...SOUTHWEST MISSOURI...

CITY           SKY/WX    TMP DP  RH WIND       PRES   REMARKS
SPRINGFIELD    CLEAR     76  71  85 S6        29.95R
JOPLIN         PTCLDY    78  71  79 S9        29.93S
BRANSON        PTCLDY    73  72  94 CALM      29.98R

$$
MOZ032>034-039>042-045>050-055>058-069>072-241200-
...CENTRAL MISSOURI...

CITY           SKY/WX    TMP DP  RH WIND       PRES   REMARKS
COLUMBIA       CLEAR     77  73  87 S6        29.92R
JEFFERSON CITY CLEAR     78  73  84 CALM      29.91R
ROLLA          CLEAR     75  70  84 S8        29.94S
SEDALIA        CLEAR     79  74  84 S8        29.92R
WHITEMAN AFB   CLEAR     77  77 100 SW8       29.90R
OSAGE BEACH    PTCLDY    75  72  90 SE3       29.94R

$$
MOZ051-052-059>065-241200-
...EAST CENTRAL MISSOURI...

CITY           SKY/WX    TMP DP  RH WIND       PRES   REMARKS
ST LOUIS INTL  MOCLDY    81  74  79 S5        29.93R
SPIRIT OF STL  CLEAR     77  75  93 CALM      29.92R
ST CHARLES     PTCLDY    77  76  96 CALM      29.91S FOG

$$
MOZ072>076-082>087-097>100-106>115-241200-
...SOUTH CENTRAL AND SOUTHEAST MISSOURI...

CITY           SKY/WX    TMP DP  RH WIND       PRES   REMARKS
CAPE GIRARDEAU PTCLDY    76  74  93 SE5       29.95R FOG
FARMINGTON     CLEAR     74  73  97 MISG      29.98R FOG
POPLAR BLUFF   PTCLDY    77  74  90 CALM      29.94R
WEST PLAINS    PTCLDY    73  68  84 CALM      29.99R

$$




USA.gov is the U.S. government's official web portal to all federal, state and local government web resources and services.